Location: Albuquerque Trailhead
(34.7934°N, 106.3736°W)
Time: 02:26:14
(UTC+00:00)

Cosmos 1300 - Pass Details

Date: 20 June 2021
Orbit: 509 x 513 km, 82.5° (Epoch: 27 July)

Event Time Altitude Azimuth Distance (km) Brightness Sun altitude
Rises 05:11:47 0° 349° (N) 2,628 7.4 -25.7°
Reaches altitude 10° 05:13:56 10° 347° (NNW) 1,737 6.3 -25.9°
Enters shadow 05:16:44 45° 325° (NW) 707 3.7 -26.2°
